FW7194 Weather Reports


Display with metric or nautical units.
time (UTC)temp
F
wind
direction
speed
MPH
gust
MPH
rain 1hr
in
rain 24hr
in
rain mn
in
humidity
%
barometer
mb
20260831110109 75 41 0.0 0.0 0.00 0.00 0.00 96 1018.9
20260831105607 75 43 0.0 0.0 0.00 0.00 0.00 96 1019.0
20260831105102 75 39 0.0 1.0 0.00 0.00 0.00 96 1018.9
20260831104558 75 21 0.0 0.0 0.00 0.00 0.00 96 1018.8
20260831104054 75 13 0.0 0.0 0.00 0.00 0.00 96 1019.0
20260831103548 75 16 0.0 0.0 0.00 0.00 0.00 96 1019.0
20260831103044 75 19 0.0 0.0 0.00 0.00 0.00 95 1019.1
20260831102538 75 39 0.0 0.0 0.00 0.00 0.00 95 1019.0
20260831102034 75 6 0.0 0.0 0.00 0.00 0.00 95 1018.8
20260831101529 75 5 0.0 0.0 0.00 0.00 0.00 95 1018.8
20260831101025 75 36 0.0 0.0 0.00 0.00 0.00 95 1018.7
20260831100520 75 36 1.0 1.0 0.00 0.00 0.00 95 1018.8
20260831100016 75 44 0.0 1.0 0.00 0.00 0.00 95 1018.8
20260831095515 75 24 0.0 0.0 0.00 0.00 0.00 95 1018.7
20260831095009 75 40 0.0 0.0 0.00 0.00 0.00 95 1018.8
20260831094505 75 40 0.0 0.0 0.00 0.00 0.00 95 1018.8
20260831094001 75 40 0.0 0.0 0.00 0.00 0.00 95 1018.7
20260831093456 75 39 0.0 0.0 0.00 0.00 0.00 95 1018.9
20260831092953 75 39 0.0 0.0 0.00 0.00 0.00 95 1018.5
20260831092448 75 39 0.0 0.0 0.00 0.00 0.00 95 1018.8
20260831091943 75 39 0.0 0.0 0.00 0.00 0.00 95 1018.6
20260831091438 75 40 0.0 0.0 0.00 0.00 0.00 95 1018.7
20260831090933 75 55 0.0 0.0 0.00 0.00 0.00 95 1018.5
20260831090430 75 35 0.0 0.0 0.00 0.00 0.00 95 1018.6
20260831085925 75 40 0.0 0.0 0.00 0.00 0.00 95 1018.4
20260831085420 75 9 0.0 0.0 0.00 0.00 0.00 95 1018.4
20260831084920 75 15 0.0 0.0 0.00 0.00 0.00 95 1018.4
20260831084416 75 65 0.0 1.0 0.00 0.00 0.00 95 1018.5
20260831083912 75 53 0.0 0.0 0.00 0.00 0.00 95 1018.4
20260831083408 75 51 0.0 0.0 0.00 0.00 0.00 95 1018.5
20260831082906 75 68 0.0 1.0 0.00 0.00 0.00 95 1018.5
20260831082406 75 104 0.0 0.0 0.00 0.00 0.00 95 1018.6
20260831081902 75 104 0.0 0.0 0.00 0.00 0.00 95 1018.7
20260831081357 75 107 0.0 0.0 0.00 0.00 0.00 95 1018.6
20260831080853 75 107 0.0 0.0 0.00 0.00 0.00 95 1018.8
20260831080348 76 107 0.0 0.0 0.00 0.00 0.00 95 1018.6
20260831075843 75 108 0.0 0.0 0.00 0.00 0.00 95 1018.6
20260831075338 76 108 0.0 0.0 0.00 0.00 0.00 95 1018.7
20260831074833 76 107 0.0 0.0 0.00 0.00 0.00 94 1018.6
20260831074332 76 107 0.0 0.0 0.00 0.00 0.00 94 1018.5
20260831073828 76 106 0.0 0.0 0.00 0.00 0.00 94 1018.6
20260831073327 76 108 0.0 0.0 0.00 0.00 0.00 94 1018.5
20260831072822 76 108 0.0 0.0 0.00 0.00 0.00 94 1018.7
20260831072313 76 103 0.0 0.0 0.00 0.00 0.00 94 1018.4
20260831071808 76 93 0.0 1.0 0.00 0.00 0.00 94 1018.6
20260831071302 76 104 0.0 0.0 0.00 0.00 0.00 94 1018.6
20260831070756 76 104 0.0 0.0 0.00 0.00 0.00 94 1018.6
20260831070255 76 104 0.0 0.0 0.00 0.00 0.00 94 1018.7
20260831065755 76 104 0.0 0.0 0.00 0.00 0.00 94 1018.7
20260831065253 76 104 0.0 0.0 0.00 0.00 0.00 94 1018.6
20260831064748 76 104 0.0 0.0 0.00 0.00 0.00 94 1018.8
20260831064243 76 104 0.0 0.0 0.00 0.00 0.00 94 1018.7
20260831063739 76 104 0.0 0.0 0.00 0.00 0.00 94 1018.7
20260831063239 76 104 0.0 0.0 0.00 0.00 0.00 94 1018.7
20260831062734 76 104 0.0 0.0 0.00 0.00 0.00 94 1018.8
20260831062229 76 104 0.0 0.0 0.00 0.00 0.00 94 1019.0
20260831061727 76 103 0.0 0.0 0.00 0.00 0.00 94 1018.8
20260831061222 76 99 0.0 0.0 0.00 0.00 0.00 94 1018.9
20260831060718 76 99 0.0 0.0 0.00 0.00 0.00 94 1019.0
20260831060218 76 99 0.0 0.0 0.00 0.00 0.00 94 1018.8
20260831055712 76 99 0.0 0.0 0.00 0.00 0.00 94 1019.0
20260831055207 76 99 0.0 0.0 0.00 0.00 0.00 93 1019.1
20260831054707 76 99 0.0 0.0 0.00 0.00 0.00 93 1019.2
20260831054202 76 98 0.0 0.0 0.00 0.00 0.00 93 1019.1
20260831053656 76 98 0.0 0.0 0.00 0.00 0.00 93 1019.1
20260831053155 76 98 0.0 0.0 0.00 0.00 0.00 93 1019.2
20260831052654 76 97 0.0 0.0 0.00 0.00 0.00 93 1019.3
20260831052154 76 97 0.0 0.0 0.00 0.00 0.00 93 1019.3
20260831051652 76 97 0.0 0.0 0.00 0.00 0.00 93 1019.4
20260831051150 76 96 0.0 0.0 0.00 0.00 0.00 93 1019.3
20260831050645 76 93 0.0 0.0 0.00 0.00 0.00 93 1019.4
20260831050144 77 89 0.0 0.0 0.00 0.00 0.00 93 1019.3
20260831045644 77 87 0.0 0.0 0.00 0.00 0.00 93 1019.2
20260831045139 77 201 0.0 0.0 0.00 0.00 0.00 93 1019.1
20260831044634 77 235 0.0 0.0 0.00 0.00 0.00 93 1019.2
20260831044129 77 230 0.0 0.0 0.00 0.00 0.00 93 1019.2
20260831043625 77 218 0.0 0.0 0.00 0.00 0.00 93 1019.2
20260831043120 77 214 0.0 1.0 0.00 0.00 0.00 93 1019.2
20260831042614 77 184 0.0 0.0 0.00 0.00 0.00 92 1019.4
20260831042109 77 178 0.0 0.0 0.00 0.00 0.00 92 1019.3
20260831041604 77 159 0.0 1.0 0.00 0.00 0.00 92 1019.4
20260831041103 77 132 0.0 0.0 0.00 0.00 0.00 92 1019.6
20260831040558 77 132 0.0 0.0 0.00 0.00 0.00 92 1019.4
20260831040057 77 131 0.0 0.0 0.00 0.00 0.00 92 1019.7
20260831035555 77 129 0.0 0.0 0.00 0.00 0.00 92 1019.8
20260831035051 77 127 0.0 0.0 0.00 0.00 0.00 92 1019.7
20260831034550 77 125 0.0 0.0 0.00 0.00 0.00 92 1019.8
20260831034046 77 125 0.0 0.0 0.00 0.00 0.00 92 1019.8
20260831033541 77 124 0.0 0.0 0.00 0.00 0.00 92 1019.9
20260831033036 77 124 0.0 0.0 0.00 0.00 0.00 92 1019.9
20260831032536 77 124 0.0 0.0 0.00 0.00 0.00 92 1019.7
20260831032032 77 124 0.0 0.0 0.00 0.00 0.00 92 1019.9
20260831031531 77 124 0.0 0.0 0.00 0.00 0.00 91 1019.8
20260831031030 77 123 0.0 0.0 0.00 0.00 0.00 91 1020.1
20260831030529 77 123 0.0 0.0 0.00 0.00 0.00 91 1020.0
20260831030023 78 122 0.0 0.0 0.00 0.00 0.00 91 1020.1
20260831025521 78 121 0.0 0.0 0.00 0.00 0.00 91 1020.0
20260831025017 78 120 0.0 0.0 0.00 0.00 0.00 91 1020.0
20260831024513 78 119 0.0 0.0 0.00 0.00 0.00 91 1020.0
20260831024012 78 119 0.0 0.0 0.00 0.00 0.00 91 1020.0
20260831023510 78 119 0.0 0.0 0.00 0.00 0.00 91 1019.9
20260831023005 78 119 0.0 0.0 0.00 0.00 0.00 91 1019.9
20260831022504 78 119 0.0 0.0 0.00 0.00 0.00 91 1019.9
20260831021959 78 119 0.0 0.0 0.00 0.00 0.00 90 1020.0
20260831021458 78 118 0.0 0.0 0.00 0.00 0.00 90 1020.1
20260831020954 78 173 0.0 2.0 0.00 0.00 0.00 90 1020.0
20260831020454 78 145 2.0 2.0 0.00 0.00 0.00 90 1019.9
20260831015949 78 180 0.0 0.0 0.00 0.00 0.00 90 1020.0
20260831015445 79 217 0.0 0.0 0.00 0.00 0.00 90 1020.2
20260831014946 79 213 0.0 0.0 0.00 0.00 0.00 90 1020.1
20260831014440 79 194 1.0 1.0 0.00 0.00 0.00 90 1020.3
20260831013936 79 206 0.0 2.0 0.00 0.00 0.00 90 1020.1
20260831013432 79 204 0.0 0.0 0.00 0.00 0.00 90 1020.1
20260831012932 79 183 0.0 0.0 0.00 0.00 0.00 90 1019.9
20260831012427 79 190 0.0 0.0 0.00 0.00 0.00 90 1019.9
20260831011926 79 185 0.0 1.0 0.00 0.00 0.00 89 1020.1
20260831011421 79 169 1.0 3.0 0.00 0.00 0.00 89 1020.0
20260831010917 79 138 2.0 2.0 0.00 0.00 0.00 89 1019.9
20260831010412 79 146 2.0 2.0 0.00 0.00 0.00 89 1019.6
20260831005907 79 124 0.0 3.0 0.00 0.00 0.00 89 1019.6
20260831005403 79 161 1.0 2.0 0.00 0.00 0.00 89 1019.7
20260831004857 79 168 0.0 1.0 0.00 0.00 0.00 89 1019.7
20260831004354 79 149 2.0 3.0 0.00 0.00 0.00 89 1019.7
20260831003849 79 184 0.0 2.0 0.00 0.00 0.00 89 1019.4
20260831003345 79 193 0.0 3.0 0.00 0.00 0.00 89 1019.7
20260831002844 79 164 0.0 1.0 0.00 0.00 0.00 89 1019.6
20260831002344 79 171 0.0 1.0 0.00 0.00 0.00 88 1019.5
20260831001839 80 139 1.0 1.0 0.00 0.00 0.00 88 1019.2
20260831001339 80 167 0.0 2.0 0.00 0.00 0.00 88 1019.5
20260831000837 80 173 1.0 1.0 0.00 0.00 0.00 88 1019.4
20260831000333 80 178 0.0 0.0 0.00 0.00 0.00 88 1019.5
20260830235830 80 184 0.0 1.0 0.00 0.00 0.00 88 1019.3
20260830235325 80 142 1.0 2.0 0.00 0.00 0.00 88 1019.3
20260830234821 80 179 0.0 1.0 0.00 0.00 0.00 88 1019.2
20260830234316 80 155 0.0 1.0 0.00 0.00 0.00 87 1019.2
20260830233812 80 85 1.0 2.0 0.00 0.00 0.00 87 1019.2
20260830233307 80 1 0.0 0.0 0.00 0.00 0.00 87 1019.3
20260830232803 81 2 0.0 0.0 0.00 0.00 0.00 87 1019.1
20260830232258 81 64 0.0 0.0 0.00 0.00 0.00 87 1019.2
20260830231755 81 73 0.0 1.0 0.00 0.00 0.00 87 1019.0
20260830231254 81 107 0.0 1.0 0.00 0.00 0.00 86 1019.1
20260830230749 81 105 0.0 2.0 0.00 0.00 0.00 86 1018.9
20260830230244 81 9 0.0 1.0 0.00 0.00 0.00 86 1018.9
20260830225744 82 30 1.0 3.0 0.00 0.00 0.00 86 1018.9
20260830225239 82 281 1.0 1.0 0.00 0.00 0.00 86 1019.0
20260830224738 82 355 0.0 3.0 0.00 0.00 0.00 85 1018.9
20260830224234 82 3 0.0 1.0 0.00 0.00 0.00 85 1019.1
20260830223730 82 59 0.0 3.0 0.00 0.00 0.00 85 1019.1
20260830223226 82 48 2.0 2.0 0.00 0.00 0.00 85 1018.9
20260830222720 82 47 3.0 3.0 0.00 0.00 0.00 85 1019.0
20260830222215 82 99 1.0 2.0 0.00 0.00 0.00 85 1019.1
20260830221711 82 29 2.0 3.0 0.00 0.00 0.00 85 1019.0
20260830221208 83 104 1.0 5.0 0.00 0.00 0.00 85 1018.8
20260830220703 83 109 1.0 3.0 0.00 0.00 0.00 85 1019.0
20260830220202 83 12 3.0 3.0 0.00 0.00 0.00 85 1019.2
20260830215701 83 89 3.0 6.0 0.00 0.00 0.00 85 1019.1
20260830215155 83 43 3.0 3.0 0.00 0.00 0.00 86 1019.1
20260830214651 83 49 0.0 1.0 0.00 0.00 0.00 86 1019.1
20260830214150 83 222 0.0 3.0 0.00 0.00 0.00 85 1019.3
20260830213650 83 76 2.0 5.0 0.00 0.00 0.00 85 1019.2
20260830213146 83 194 1.0 5.0 0.00 0.00 0.00 85 1019.4
20260830212641 83 40 2.0 5.0 0.00 0.00 0.00 85 1019.2
20260830212136 84 60 3.0 5.0 0.00 0.00 0.00 85 1019.1
20260830211631 84 8 4.0 8.0 0.00 0.00 0.00 85 1019.3
20260830211131 84 243 1.0 3.0 0.00 0.00 0.00 85 1019.4
20260830210626 83 192 3.0 6.0 0.00 0.00 0.00 85 1019.3
20260830210125 83 203 3.0 5.0 0.00 0.00 0.00 85 1019.4
20260830205622 83 86 4.0 7.0 0.00 0.00 0.00 85 1019.3
20260830205118 83 220 1.0 2.0 0.00 0.00 0.00 85 1019.6
20260830204618 83 190 1.0 3.0 0.00 0.00 0.00 85 1019.6
20260830204117 83 155 3.0 5.0 0.00 0.00 0.00 85 1019.7
20260830203613 83 181 1.0 7.0 0.00 0.00 0.00 85 1019.5
20260830203113 83 134 3.0 5.0 0.00 0.00 0.00 85 1019.8
20260830202608 83 150 4.0 6.0 0.00 0.00 0.00 85 1019.9
20260830202103 83 217 0.0 7.0 0.00 0.00 0.00 85 1020.0
20260830201602 83 75 1.0 8.0 0.00 0.00 0.00 85 1019.9
20260830201052 83 350 2.0 3.0 0.00 0.00 0.00 85 1019.9
20260830200548 83 69 1.0 6.0 0.00 0.00 0.00 85 1019.9
20260830200046 83 110 1.0 7.0 0.00 0.00 0.00 84 1019.9
20260830195542 84 143 6.0 8.0 0.00 0.00 0.00 84 1020.1
20260830195039 84 107 4.0 7.0 0.00 0.00 0.00 84 1020.1
20260830194534 84 138 2.0 7.0 0.00 0.00 0.00 84 1020.3
20260830194033 84 140 3.0 7.0 0.00 0.00 0.00 84 1020.2
20260830193533 84 197 2.0 8.0 0.00 0.00 0.00 84 1020.1
20260830193028 84 134 3.0 6.0 0.00 0.00 0.00 84 1020.3
20260830192523 84 137 5.0 8.0 0.00 0.00 0.00 83 1020.3
20260830192018 84 106 3.0 8.0 0.00 0.00 0.00 83 1020.1
20260830191513 84 104 3.0 8.0 0.00 0.00 0.00 83 1020.2
20260830191008 84 156 1.0 7.0 0.00 0.00 0.00 83 1020.2
20260830190504 84 188 2.0 8.0 0.00 0.00 0.00 83 1020.2
20260830190004 84 143 5.0 8.0 0.00 0.00 0.00 84 1020.2
20260830185458 84 179 1.0 5.0 0.00 0.00 0.00 84 1020.3
20260830184954 84 201 1.0 5.0 0.00 0.00 0.00 84 1020.1
20260830184453 84 11 2.0 7.0 0.00 0.00 0.00 83 1020.1
20260830183947 84 133 5.0 8.0 0.00 0.00 0.00 83 1020.2
20260830183442 84 148 3.0 5.0 0.00 0.00 0.00 83 1020.3
20260830182938 84 125 5.0 8.0 0.00 0.00 0.00 83 1020.4
20260830182433 84 97 5.0 7.0 0.00 0.00 0.00 83 1020.5
20260830181929 84 9 3.0 3.0 0.00 0.00 0.00 83 1020.4
20260830181425 84 169 5.0 9.0 0.00 0.00 0.00 83 1020.6
20260830180919 85 156 4.0 6.0 0.00 0.00 0.00 83 1020.7
20260830180418 85 158 2.0 6.0 0.00 0.00 0.00 83 1020.6
20260830175917 85 215 6.0 7.0 0.00 0.00 0.00 84 1020.8
20260830175417 84 138 3.0 5.0 0.00 0.00 0.00 85 1020.9
20260830174912 84 80 4.0 5.0 0.00 0.00 0.00 85 1021.2
20260830174408 84 299 1.0 3.0 0.00 0.00 0.00 86 1021.1
20260830173903 83 208 1.0 5.0 0.00 0.00 0.00 86 1021.2
20260830173359 83 25 1.0 3.0 0.00 0.00 0.00 86 1021.1
20260830172854 83 92 4.0 8.0 0.00 0.00 0.00 86 1021.0
20260830172350 83 96 5.0 8.0 0.00 0.00 0.00 86 1021.3
20260830171846 82 171 5.0 7.0 0.00 0.00 0.00 86 1021.3
20260830171342 82 166 3.0 5.0 0.00 0.00 0.00 86 1020.9
20260830170836 82 114 2.0 3.0 0.00 0.00 0.00 86 1020.9
20260830170336 82 142 3.0 6.0 0.00 0.00 0.00 86 1020.9
20260830165834 82 101 3.0 7.0 0.00 0.00 0.00 86 1021.1
20260830165330 82 42 2.0 3.0 0.00 0.00 0.00 86 1021.4
20260830164827 82 202 2.0 2.0 0.00 0.00 0.00 86 1021.3
20260830164322 82 197 0.0 3.0 0.00 0.00 0.00 86 1021.5
20260830163819 82 115 0.0 2.0 0.00 0.00 0.00 86 1021.5
20260830163314 82 126 4.0 5.0 0.00 0.00 0.00 86 1021.9
20260830162809 82 122 3.0 8.0 0.00 0.00 0.00 86 1021.9
20260830162306 82 85 2.0 5.0 0.00 0.00 0.00 86 1021.9
20260830161800 82 150 2.0 3.0 0.00 0.00 0.00 85 1021.6
20260830161259 82 65 5.0 6.0 0.00 0.00 0.00 85 1021.6
20260830160755 82 128 3.0 5.0 0.00 0.00 0.00 85 1021.6
20260830160255 82 153 1.0 3.0 0.00 0.00 0.00 84 1021.6
20260830155751 82 131 4.0 6.0 0.00 0.00 0.00 84 1021.9
20260830155248 82 164 2.0 6.0 0.00 0.00 0.00 84 1021.7
20260830154747 83 123 2.0 7.0 0.00 0.00 0.00 83 1021.8
20260830154243 83 180 1.0 3.0 0.00 0.00 0.00 83 1021.5
20260830153740 83 136 2.0 6.0 0.00 0.00 0.00 83 1021.7
20260830153235 83 123 5.0 6.0 0.00 0.00 0.00 82 1021.9
20260830152733 83 142 4.0 6.0 0.00 0.00 0.00 82 1022.0
20260830152228 84 120 0.0 2.0 0.00 0.00 0.00 81 1022.1
20260830151723 84 132 3.0 5.0 0.00 0.00 0.00 81 1022.1
20260830151222 84 21 2.0 6.0 0.00 0.00 0.00 81 1022.2
20260830150718 84 116 1.0 3.0 0.00 0.00 0.00 81 1022.0
20260830150217 85 119 3.0 6.0 0.00 0.00 0.00 80 1021.9
20260830145717 85 41 2.0 3.0 0.00 0.00 0.00 80 1022.0
20260830145213 86 35 0.0 3.0 0.00 0.00 0.00 81 1022.0
20260830144713 86 143 2.0 6.0 0.00 0.00 0.00 81 1021.9
20260830144209 85 152 1.0 5.0 0.00 0.00 0.00 80 1021.8
20260830143705 85 69 4.0 5.0 0.00 0.00 0.00 82 1022.0
20260830143202 85 124 2.0 6.0 0.00 0.00 0.00 82 1021.9
20260830142658 85 63 3.0 6.0 0.00 0.00 0.00 82 1022.0
20260830142153 85 16 4.0 9.0 0.00 0.00 0.00 83 1022.0
20260830141648 84 70 3.0 6.0 0.00 0.00 0.00 85 1021.6
20260830141143 84 110 3.0 5.0 0.00 0.00 0.00 85 1021.5
20260830140638 84 121 1.0 2.0 0.00 0.00 0.00 86 1021.6
20260830140138 84 148 1.0 3.0 0.00 0.00 0.00 86 1021.5
20260830135633 83 94 2.0 5.0 0.00 0.00 0.00 86 1021.4
20260830135128 83 27 7.0 8.0 0.00 0.00 0.00 87 1021.5
20260830134624 83 140 0.0 5.0 0.00 0.00 0.00 88 1021.7
20260830134119 83 122 0.0 2.0 0.00 0.00 0.00 89 1021.4
20260830133615 82 123 3.0 5.0 0.00 0.00 0.00 89 1021.5
20260830133110 82 143 1.0 3.0 0.00 0.00 0.00 91 1021.4
20260830132606 82 128 0.0 5.0 0.00 0.00 0.00 92 1021.3
20260830132102 81 95 3.0 7.0 0.00 0.00 0.00 92 1021.1
20260830131600 80 114 1.0 2.0 0.00 0.00 0.00 94 1021.1
20260830131055 80 142 0.0 3.0 0.00 0.00 0.00 95 1021.3
20260830130550 79 44 3.0 5.0 0.00 0.00 0.00 96 1021.2
20260830130045 78 61 1.0 7.0 0.00 0.00 0.00 96 1021.4
20260830125539 78 118 2.0 5.0 0.00 0.00 0.00 97 1021.4
20260830125038 78 27 4.0 6.0 0.00 0.00 0.00 97 1021.2
20260830124537 77 107 3.0 3.0 0.00 0.00 0.00 97 1021.2
20260830124033 77 34 4.0 6.0 0.00 0.00 0.00 98 1021.3
20260830123530 77 52 3.0 3.0 0.00 0.00 0.00 98 1021.3
20260830123025 76 119 3.0 8.0 0.00 0.00 0.00 98 1021.0
20260830122522 76 74 1.0 3.0 0.00 0.00 0.00 98 1021.2
20260830122018 76 107 0.0 1.0 0.00 0.00 0.00 98 1021.4
20260830121514 75 109 0.0 2.0 0.00 0.00 0.00 98 1021.6
20260830121013 75 63 0.0 3.0 0.00 0.00 0.00 98 1021.1
20260830120508 75 45 1.0 3.0 0.00 0.00 0.00 98 1021.3
20260830120005 75 57 1.0 2.0 0.00 0.00 0.00 97 1021.2
20260830115501 75 188 0.0 7.0 0.00 0.00 0.00 97 1020.7
20260830114956 75 31 0.0 5.0 0.00 0.00 0.00 97 1020.8
20260830114453 75 351 2.0 2.0 0.00 0.00 0.00 97 1020.6
20260830113952 75 247 0.0 0.0 0.00 0.00 0.00 97 1020.7
20260830113447 75 23 0.0 2.0 0.00 0.00 0.00 97 1020.5
20260830112943 75 269 1.0 5.0 0.00 0.00 0.00 97 1020.3
20260830112439 75 120 0.0 0.0 0.00 0.00 0.00 97 1020.5
20260830111934 74 33 0.0 2.0 0.00 0.00 0.00 97 1020.6
20260830111430 74 10 1.0 3.0 0.00 0.00 0.00 97 1020.5
20260830110925 74 103 0.0 3.0 0.00 0.00 0.00 97 1020.6
20260830110421 74 113 0.0 0.0 0.00 0.00 0.00 97 1020.3